Preview of NWS' New Version of Forecast
This preview is not operational and should not be used for support decisions.

Regional Weather Roundup (RWR)

Issued by National Weather Service (NWS)

                            
000
ASUS43 KDTX 200401
RWRMI 
MICHIGAN HOURLY REGIONAL WEATHER ROUNDUP
NATIONAL WEATHER SERVICE DETROIT/PONTIAC MI
1100 PM EST TUE FEB 19 2019

NOTE: "FAIR" INDICATES FEW OR NO CLOUDS BELOW 12,000 FEET WITH NO
SIGNIFICANT WEATHER AND/OR OBSTRUCTION TO VISIBILITY.

MIZ047>049-052>055-059>063-066>070-074>076-081>083-200500-
SOUTHEAST LOWER MICHIGAN
  
CITY           SKY/WX    TMP DP  RH WIND       PRES   REMARKS
ADRIAN         FAIR      25  18  74 E5        30.46F WCI  19          
ALMA           FAIR      13   7  78 CALM      30.48F                  
ANN ARBOR      FAIR      20  16  84 N5        30.46F WCI  13          
BAD AXE        FAIR      14   7  74 S5        30.51F WCI   7          
CARO           FAIR      12   6  77 CALM      30.50F                  
DETROIT CITY   FAIR      20  14  77 NE3       30.50F                  
DETROIT        CLOUDY    22  14  71 NE5       30.49F WCI  16          
FLINT          FAIR      17   7  64 E3        30.48F                  
GROSSE ILE     FAIR      21  18  87 NE5       30.48F WCI  15          
HILLSDALE      FAIR      24  14  67 E6        30.41S WCI  17          
HOWELL         FAIR      17   7  65 E3        30.46F                  

CITY           SKY/WX    TMP DP  RH WIND       PRES   REMARKS
JACKSON        FAIR      21  10  62 NE5       30.44F WCI  15          
LAMBERTVILLE   FAIR      26  20  79 E3        30.47F                  
LANSING        FAIR      18   9  68 E5        30.47F WCI  11          
LAPEER         FAIR       9   3  78 CALM      30.49F                  
MASON          FAIR      17  10  74 CALM      30.45F                  
MONROE         FAIR      24  23  96 CALM      30.47F                  
MT. CLEMENS    CLOUDY    14  12  91 MISG      30.48F                  
PONTIAC        FAIR      14   6  70 NE3       30.45F                  
PORT HOPE        N/A     14   6  70 S3        30.51R                  
PORT HURON     FAIR      10   7  85 CALM      30.52F                  
TRI CITIES     FAIR      14   7  73 SE5       30.50F WCI   6          
MIDLAND        FAIR      13  10  85 CALM      30.50F                  
TROY           FAIR      20   8  57 NE3       30.50F                  
SAGINAW HB     FAIR      18   9  68 CALM      30.50F                  
$$
MIZ043>046-050>051-056>058-064>065-071>073-077>080-200500-
SOUTHWEST LOWER MICHIGAN
  
CITY           SKY/WX    TMP DP  RH WIND       PRES   REMARKS
BATTLE CREEK   FAIR      24  12  60 E6        30.43F WCI  17          
BENTON HARBOR  FAIR      28  16  60 E7        30.42F WCI  21          
BIG RAPIDS     FAIR      17  14  85 CALM      30.44F                  
COLDWATER      FAIR      26  17  67 E7        30.42F WCI  19          
FREMONT        FAIR      21  12  68 E3        30.44F                  
HOLLAND        FAIR      22  13  68 E5        30.44F WCI  16          
GRAND RAPIDS   CLOUDY    19  10  68 E6        30.45F WCI  11          
IONIA          FAIR      15   8  75 E5        30.44F WCI   7          
KALAMAZOO      FAIR      33  13  43 E6        30.43F WCI  28          
LUDINGTON      FAIR      20  15  78 SE3       30.43F                  
MOUNT PLEASANT FAIR      11   5  75 CALM      30.47F                  
MUSKEGON       MOCLDY    22  12  65 E7        30.44F WCI  13          
SOUTH HAVEN    FAIR      28  15  59 E5        30.43S WCI  22          
$$
MIZ016>042-200500-
NORTHERN LOWER MICHIGAN
  
CITY           SKY/WX    TMP DP  RH WIND       PRES   REMARKS
ALPENA         FAIR      15   8  73 S5        30.49S WCI   8          
BEAVER ISLAND  CLOUDY    27  20  75 SW8       30.44S WCI  18          
BELLAIRE       FAIR      10   8  91 CALM      30.47F                  
CADILLAC       FAIR      12   9  86 CALM      30.39F                  
CHARLEVOIX     FAIR      10   7  90 SE5       30.49S WCI   1          
FRANKFORT      FAIR      23  15  72 CALM      30.43F                  
GAYLORD        FAIR      11   8  88 CALM      30.41F                  
GRAYLING       FAIR       1  -1  91 CALM      30.43F                  
HARBOR SPRINGS FAIR      11   9  89 CALM      30.46S                  
HOUGHTON LAKE  FAIR      12   6  77 S3        30.44F                  
MANISTEE       FAIR      17  11  77 E3        30.44F                  
OSCODA         FAIR      10   5  83 CALM      30.51S                  
PELLSTON       FAIR       0  -3  87 CALM      30.46F                  
ROGERS CITY    FAIR      15  10  80 S6        30.50R WCI   6          
TRAVERSE CITY  FAIR      15  11  83 CALM      30.44F                  
$$
MIZ007>008-015-200500-
EASTERN UPPER MICHIGAN
  
CITY           SKY/WX    TMP DP  RH WIND       PRES   REMARKS
KINROSS        MOCLDY    10   7  87 S3        30.44F                  
MACKINAC ISLAN MOCLDY    17  13  84 S7        30.44F WCI   7          
NEWBERRY       FAIR      10   8  92 MISG      30.41F                  
S. S. MARIE    MOCLDY    13   8  81 CALM      30.44F                  
MUNISING         N/A     14  32 100 S7        30.39F WCI   4          
$$
MIZ004>006-011>014-085-200500-
CENTRAL UPPER MICHIGAN
  
CITY           SKY/WX    TMP DP  RH WIND       PRES   REMARKS
MANISTIQUE     FAIR      14   1  57 CALM      30.42F                  
ESCANABA       FAIR       1  -3  83 CALM      30.43F                  
MENOMINEE      FAIR      11   4  73 CALM      30.43F                  
SAWYER-GWINN   FAIR      13   6  75 S7        30.35S WCI   2          
$$
MIZ001>003-009>011-084-200500-
WESTERN UPPER MICHIGAN
  
CITY           SKY/WX    TMP DP  RH WIND       PRES   REMARKS
IRON MOUNTAIN  FAIR      11   5  77 S5        30.36S WCI   3          
HOUGHTON       FAIR      10   0  63 CALM      30.32F                  
COPPER HARBOR    N/A     13   8  81 W7        30.35S WCI   3          
IRONWOOD       FAIR      15   3  59 SW7       30.33F WCI   5          
$$

ABBREVIATIONS USED IN REMARKS
   TC - TEMPERATURE IN CELSIUS
  WCI - WIND CHILL INDEX
   HX - HEAT INDEX
  VSB - VISIBILITY